| time (UTC) | temp C | wind direction | speed KPH | gust KPH | rain 1hr cm | rain 24hr cm | rain mn cm | humidity % | barometer mb |
| 20260504001535 | 13 | 264 | 3.2 | 12.9 | 0.00 | 0.00 | 0.00 | 47 | 1012.2 |
| 20260504000134 | 13 | 231 | 6.4 | 27.4 | 0.00 | 0.00 | 0.00 | 46 | 1012.2 |
| 20260503234600 | 13 | 207 | 4.8 | 22.5 | 0.00 | 0.00 | 0.00 | 47 | 1012.2 |
| 20260503233021 | 14 | 229 | 3.2 | 24.1 | 0.00 | 0.00 | 0.00 | 46 | 1012.3 |
| 20260503231616 | 14 | 215 | 11.3 | 27.4 | 0.00 | 0.00 | 0.00 | 45 | 1012.3 |
| 20260503230038 | 15 | 223 | 8.0 | 30.6 | 0.00 | 0.00 | 0.00 | 43 | 1012.4 |
| 20260503224630 | 15 | 194 | 8.0 | 22.5 | 0.00 | 0.00 | 0.00 | 42 | 1012.4 |
| 20260503223048 | 15 | 309 | 11.3 | 25.7 | 0.00 | 0.00 | 0.00 | 41 | 1012.5 |
| 20260503221515 | 15 | 180 | 9.7 | 25.7 | 0.00 | 0.00 | 0.00 | 42 | 1012.5 |
| 20260503220106 | 15 | 178 | 9.7 | 25.7 | 0.00 | 0.00 | 0.00 | 42 | 1012.6 |
| 20260503214531 | 15 | 213 | 6.4 | 24.1 | 0.00 | 0.00 | 0.00 | 43 | 1012.6 |
| 20260503213135 | 16 | 232 | 9.7 | 25.7 | 0.00 | 0.00 | 0.00 | 43 | 1012.4 |
| 20260503211616 | 15 | 226 | 6.4 | 29.0 | 0.00 | 0.00 | 0.00 | 42 | 1012.4 |
| 20260503210016 | 16 | 202 | 6.4 | 20.9 | 0.00 | 0.00 | 0.00 | 42 | 1012.5 |
| 20260503204626 | 16 | 269 | 0.0 | 27.4 | 0.00 | 0.00 | 0.00 | 40 | 1012.6 |
| 20260503203036 | 15 | 238 | 14.5 | 38.6 | 0.00 | 0.00 | 0.00 | 41 | 1012.7 |
| 20260503201632 | 16 | 223 | 9.7 | 35.4 | 0.00 | 0.00 | 0.00 | 43 | 1012.9 |
| 20260503200046 | 15 | 223 | 11.3 | 24.1 | 0.00 | 0.00 | 0.00 | 42 | 1013.1 |
| 20260503194509 | 16 | 262 | 4.8 | 25.7 | 0.00 | 0.00 | 0.00 | 43 | 1013.2 |
| 20260503193058 | 16 | 243 | 4.8 | 30.6 | 0.00 | 0.00 | 0.00 | 40 | 1013.6 |
| 20260503191516 | 16 | 246 | 14.5 | 29.0 | 0.00 | 0.00 | 0.00 | 41 | 1013.8 |
| 20260503184530 | 15 | 250 | 19.3 | 37.0 | 0.00 | 0.00 | 0.00 | 38 | 1014.2 |
| 20260503183123 | 15 | 254 | 12.9 | 35.4 | 0.00 | 0.00 | 0.00 | 38 | 1014.3 |
| 20260503181550 | 15 | 248 | 16.1 | 35.4 | 0.00 | 0.00 | 0.00 | 37 | 1014.5 |
| 20260503180134 | 15 | 275 | 11.3 | 32.2 | 0.00 | 0.00 | 0.00 | 41 | 1014.8 |
| 20260503174601 | 15 | 265 | 12.9 | 30.6 | 0.00 | 0.00 | 0.00 | 43 | 1014.9 |
| 20260503173005 | 15 | 217 | 14.5 | 37.0 | 0.00 | 0.00 | 0.00 | 40 | 1015.0 |
| 20260503171603 | 15 | 246 | 16.1 | 37.0 | 0.00 | 0.00 | 0.00 | 41 | 1015.1 |
| 20260503130123 | 8 | 281 | 6.4 | 17.7 | 0.00 | 0.00 | 0.00 | 49 | 1017.2 |
| 20260503100121 | 3 | 209 | 0.0 | 0.0 | 0.00 | 0.03 | 0.00 | 77 | 1016.4 |
| 20260503081614 | 1 | 219 | 0.0 | 0.0 | 0.00 | 0.10 | 0.00 | 85 | 1016.8 |
| 20260503071517 | 1 | 302 | 0.0 | 0.0 | 0.00 | 0.10 | 0.00 | 85 | 1016.8 |
| 20260503070116 | 1 | 302 | 0.0 | 0.0 | 0.00 | 0.10 | 0.00 | 86 | 1016.8 |
| 20260503054605 | 0 | 298 | 0.0 | 0.0 | 0.00 | 0.10 | 0.00 | 90 | 1017.3 |
| 20260503053026 | 0 | 298 | 0.0 | 0.0 | 0.00 | 0.10 | 0.00 | 89 | 1017.4 |
| 20260503051612 | 1 | 298 | 0.0 | 0.0 | 0.00 | 0.10 | 0.00 | 89 | 1017.4 |
| 20260503050025 | 1 | 298 | 0.0 | 0.0 | 0.00 | 0.10 | 0.00 | 89 | 1017.5 |
| 20260503044613 | 1 | 298 | 0.0 | 0.0 | 0.00 | 0.10 | 0.00 | 88 | 1017.6 |
| 20260503043031 | 1 | 298 | 0.0 | 0.0 | 0.00 | 0.10 | 0.00 | 87 | 1017.5 |
| 20260503041628 | 2 | 298 | 0.0 | 0.0 | 0.00 | 0.10 | 0.00 | 86 | 1017.7 |
| 20260503040049 | 2 | 298 | 0.0 | 0.0 | 0.00 | 0.10 | 0.00 | 85 | 1017.8 |
| 20260503034634 | 2 | 298 | 0.0 | 0.0 | 0.00 | 0.10 | 0.10 | 85 | 1017.8 |
| 20260503033059 | 3 | 298 | 0.0 | 0.0 | 0.00 | 0.10 | 0.10 | 84 | 1017.8 |
| 20260503031519 | 3 | 298 | 0.0 | 0.0 | 0.00 | 0.10 | 0.10 | 84 | 1017.8 |
| 20260503030114 | 3 | 298 | 0.0 | 0.0 | 0.00 | 0.10 | 0.10 | 84 | 1017.9 |
| 20260503024537 | 3 | 298 | 0.0 | 0.0 | 0.00 | 0.10 | 0.10 | 84 | 1018.2 |
| 20260503023120 | 3 | 298 | 0.0 | 0.0 | 0.00 | 0.10 | 0.10 | 83 | 1018.3 |
| 20260503021543 | 3 | 298 | 0.0 | 0.0 | 0.00 | 0.10 | 0.10 | 81 | 1018.3 |
| 20260503020003 | 3 | 298 | 0.0 | 0.0 | 0.00 | 0.10 | 0.10 | 80 | 1018.2 |
| 20260503014628 | 3 | 298 | 0.0 | 0.0 | 0.00 | 0.10 | 0.10 | 79 | 1018.2 |
| 20260503013032 | 4 | 298 | 0.0 | 0.0 | 0.00 | 0.10 | 0.10 | 77 | 1018.2 |
| 20260503011635 | 4 | 298 | 0.0 | 0.0 | 0.00 | 0.10 | 0.10 | 78 | 1018.2 |
| 20260503010037 | 5 | 298 | 0.0 | 0.0 | 0.00 | 0.10 | 0.10 | 77 | 1018.2 |
| 20260503004633 | 5 | 298 | 0.0 | 0.0 | 0.00 | 0.10 | 0.10 | 76 | 1018.2 |
| 20260503003102 | 5 | 298 | 0.0 | 0.0 | 0.00 | 0.10 | 0.10 | 73 | 1018.1 |